Regional Weather Roundup
Issued by NWS Charleston, SC

Current Version | Previous Version | Graphics & Text | Print | Product List | Glossary On
Versions: 1 2 3 4 5 6 7 8 9 10 11 12 13 14 15 16 17 18 19 20 21 22 23 24 25 26 27 28 29 30 31 32 33 34 35 36 37 38 39 40 41 42 43 44 45 46 47 48 49 50
000 ASUS42 KCHS 220927 RWRCHS Regional Weather Roundup National Weather Service Charleston SC 400 AM EST THU FEB 22 2018 NOTE: "fair" indicates few or no clouds below 12,000 feet with no significant weather and/or obstructions to visibility. Not all stations are quality controlled. Use data with caution, especially dewpoint observations. SCZ027-030-031-034>040-042>050-221000- ...Southeast South Carolina... CITY SKY/WX TMP DP RH WIND PRES REMARKS N Charleston FAIR 64 63 96 CALM 30.42S Waterfront Prk N/A 62 62 100 CALM 30.28S Mount Pleasant PTSUNNY 64 64 100 CALM 30.43S FOG Johns Island FOG 64 64 100 CALM 30.43R VSB 1/4 Pinopolis N/A 61 61 100 CALM 30.34S Moncks Corner FOG 57 55 94 CALM 30.44R VSB 1/2 Summerville FOG 61 59 94 CALM 30.44S VSB 1/4 Beaufort MCAS FAIR 68 67 96 CALM 30.41F Beaufort Arpt N/A 63 63 100 CALM 30.42R FOG Hilton Head Is FAIR 66 64 94 CALM 30.42S Walterboro FOG 59 59 100 CALM 30.44S VSB 1/4 Allendale CLOUDY 68 68 100 S6 30.42S ...Southern Midlands and Pee Dee... CITY SKY/WX TMP DP RH WIND PRES REMARKS Georgetown PTSUNNY 63 63 100 CALM 30.45R Kingstree FOG 59 59 100 CALM 30.44S VSB 1/4 Orangeburg CLOUDY 67 65 93 S6 30.43S Barnwell N/A 70 68 94 S6 30.42S Aiken CLOUDY 66 64 94 S7 30.45S Manning HAZE 61 50 67 MISG 30.44S VSB 1/2 Columbia CLOUDY 69 66 90 S8 30.41F Sumter FOG 64 64 100 CALM 30.41S VSB 1/4 Florence FOG 65 65 100 S5 30.44S VSB 1/2 Myrtle Beach CLOUDY 66 64 94 S9 30.45S N Myrtle Beach CLOUDY 66 65 96 S8 30.44S $$ GAZ063-065-086>088-099>101-113>116-118-119-134>141-150-221000- ...Southeast Georgia... CITY SKY/WX TMP DP RH WIND PRES REMARKS Savannah Arpt FAIR 63 63 100 CALM 30.42S FOG Hunter AAF FAIR 66 64 93 CALM 30.38F Fort Stewart MOCLDY 61 61 100 NW3 30.39S VSB 1/2 Statesboro CLOUDY 69 32 25 S6 30.42S Sylvania CLOUDY 68 68 100 CALM 30.43S FOG Claxton CLOUDY 68 67 98 CALM 30.41S ...CSRA, Central and far Southeast Georgia... CITY SKY/WX TMP DP RH WIND PRES REMARKS Thomson CLOUDY 67 64 89 W8 30.46R Augusta-Bush CLOUDY 69 66 90 S9 30.40F Augusta-Daniel CLOUDY 69 65 86 S6 30.41F Swainsboro CLOUDY 70 66 88 S3 30.42S Vidalia CLOUDY 70 68 94 S3 30.41R Eastman CLOUDY 70 60 71 S7 30.42S Hazlehurst CLOUDY 70 68 93 CALM 30.39S Alma CLOUDY 70 67 90 S8 30.40R Waycross CLOUDY 70 67 90 S6 30.39S Jesup FOG 63 61 94 CALM 30.40S VSB 1/4 Baxley CLOUDY 68 68 100 S5 30.40S Brunswick CLOUDY 68 63 83 SE6 30.41S Saint Simons CLOUDY 65 64 97 S3 30.40R $$ SCZ027-028-034-036>038-045-046-048>050-GAZ119-141-221000- ...Lake and Supplemental Coastal Observations... STATION/POSITION TIME TEMP WIND PRES WAVE SWELL AIR SEA DIR/SP/G HT/PER HT/PER/DIR (UTC) (F) (DEG/KT/KT) (MB) (FT/S) (FT/S/D) Winyah Bay 0845 65 220/ 1 1031.0S Lake Murray 0830 65 160/ 7/ 8 1029.1S ACE Basin NERRS 0845 63 CALM 1030.0S Fort Pulaski 0900 65 61 160/ 3/ 5 1029.9 Sapelo Island 0900 67 160/ 7 1029.0 $$ ANZ835-935-AMZ111-154-330-350-352-354-370-450-454-472-221000- ...C-MAN and Buoy Observations... STATION/POSITION TIME TEMP WIND PRES WAVE SWELL AIR SEA DIR/SP/G HT/PER HT/PER/DIR (UTC) (F) (DEG/KT/KT) (MB) (FT/S) (FT/S/D) Buoy 41004 0910 71 69 150/ 12/ 14 1030.0 Buoy 41008 0850 62 58 140/ 2/ 4 1029.3F 3/ 9 3/110/ 9 Folly Beach CMAN 0900 64 170/ 3/ 3 1030.7S Capers Nearshore 0808 58 59 150/ 4/ 6 1030.0F Fripp Nearshore 0808 60 59 170/ 4/ 8 1029.6F STATION/POSITION TIME TEMP WIND PRES WAVE SWELL AIR SEA DIR/SP/G HT/PER HT/PER/DIR (UTC) (F) (DEG/KT/KT) (MB) (FT/S) (FT/S/D) 5E St. Marys GA 0900 64 N/A 3/ 6 2/100/13 Frying Pan Buoy 0910 71 70 170/ 10/ 14 1030.8 Buoy 41025 0910 71 190/ 14/ 16 1031.7 Cape Lookout NC 0900 210/ 7/ 8 1031.5S Buoy 41002 0850 72 74 150/ 10/ 12 1031.7F 6/ 8 7/120/ 8 Buoy 41010 NOT AVBL St Augustine FL 0900 67 66 130/ 2/ 2 1029.0F $$

USA.gov is the U.S. government's official web portal to all federal, state and local government web resources and services.